This demonstration page uses our WeatherBlox Daily Observations layout. Learn more.

Left ArrowRight Arrow

41.12389, -100.76542

Hourly Observations for July 12, 2015

Temp ( °F °C ) Dew Point ( °F °C ) Humidity (%) Winds ( mph kmh ) Pressure ( in mb ) Visibility ( mi km ) Precip ( " mm )
12:53 am 00:53 Clear 69 20.6 67 19.4 93 93 E 6 9 29.88 1012 10 16 0.00 0.00
1:45 am 01:45 Mostly Clear with Mist and Fog 67 19.4 66 18.9 97 97 Calm 29.88 1012 2 3 0.00 0.00
1:47 am 01:47 Mostly Clear with Mist and Fog 66 19 66 19 100 100 Calm 29.88 1012 1 2 0.00 0.00
1:53 am 01:53 Mostly Clear with Mist and Fog 67 19.4 65 18.3 93 93 ENE 3 6 29.87 1012 1 2 0.00 0.00
2:08 am 02:08 Partly Cloudy with Mist and Fog 66 19 66 19 100 100 ENE 3 6 29.88 1012 2 3 0.00 0.00
2:16 am 02:16 Mostly Clear with Mist and Fog 66 19 66 19 100 100 E 5 7 29.88 1012 4 6 0.00 0.00
2:28 am 02:28 Mostly Cloudy with Mist and Fog 66 19 66 19 100 100 ESE 3 6 29.88 1012 2 3 0.00 0.00
2:31 am 02:31 Mostly Cloudy with Mist and Fog 67 19.4 66 18.9 97 97 Calm 29.88 1012 1 2 0.00 0.00
2:39 am 02:39 Mostly Cloudy with Fog 66 18.9 65 18.3 96 96 Calm 29.88 1012 1 1 0.00 0.00
2:53 am 02:53 Mostly Cloudy with Fog 67 19.4 65 18.3 93 93 WNW 10 17 29.88 1012 0 0 0.00 0.00
2:59 am 02:59 Mostly Cloudy with Mist and Fog 69 20.6 67 19.4 93 93 NW 8 13 29.85 1011 1 2 0.00 0.00
3:10 am 03:10 Partly Cloudy 68 20 66 19 94 94 NW 3 6 29.85 1011 7 11 0.00 0.00
3:53 am 03:53 Clear with Mist and Fog 66 18.9 65 18.3 96 96 Calm 29.88 1012 6 10 0.00 0.00
4:28 am 04:28 Partly Cloudy 64 18 63 17 94 94 WNW 3 6 29.88 1012 8 13 0.00 0.00
4:40 am 04:40 Mostly Cloudy 64 18 63 17 94 94 NW 5 7 29.88 1012 8 13 0.00 0.00
4:46 am 04:46 Mostly Cloudy with Mist and Fog 64 17.8 62 16.7 93 93 NW 3 6 29.88 1012 2 3 0.00 0.00
4:53 am 04:53 Mostly Cloudy with Mist and Fog 64 17.8 63 17.2 96 96 NW 3 6 29.88 1012 1 2 0.00 0.00
5:01 am 05:01 Mostly Cloudy with Fog 63 17.2 62 16.7 97 97 NNW 5 7 29.88 1012 1 1 0.00 0.00
5:20 am 05:20 Mostly Cloudy with Mist and Fog 63 17 63 17 100 100 NW 5 7 29.88 1012 2 3 0.00 0.00
5:31 am 05:31 Mostly Cloudy with Mist and Fog 64 17.8 63 17.2 96 96 NNW 3 6 29.88 1012 1 2 0.00 0.00
5:34 am 05:34 Partly Cloudy with Mist and Fog 64 17.8 63 17.2 96 96 NNW 3 6 29.88 1012 2 2 0.00 0.00
5:37 am 05:37 Mostly Clear with Mist and Fog 63 17 63 17 100 100 NNW 3 6 29.88 1012 3 5 0.00 0.00
5:48 am 05:48 Clear with Mist and Fog 63 17 61 16 94 94 NW 3 6 29.88 1012 3 4 0.00 0.00
5:53 am 05:53 Clear with Mist and Fog 63 17.2 62 16.7 97 97 WNW 3 6 29.88 1012 3 4 0.00 0.00
5:59 am 05:59 Mostly Clear with Mist and Fog 62 16.7 61 16.1 96 96 NW 5 7 29.88 1012 3 5 0.00 0.00
6:09 am 06:09 Mostly Clear with Mist and Fog 64 17.8 62 16.7 93 93 WNW 8 13 29.88 1012 2 3 0.00 0.00
6:18 am 06:18 Mostly Clear 64 17.8 62 16.7 93 93 NW 7 11 29.88 1012 8 13 0.00 0.00
6:53 am 06:53 Sunny 63 17.2 63 17.2 100 100 W 6 9 29.89 1012 9 14 0.00 0.00
7:53 am 07:53 Sunny 71 21.7 69 20.6 94 94 W 3 6 29.88 1012 10 16 0.00 0.00
8:53 am 08:53 Sunny 76 24.4 69 20.6 79 79 WNW 10 17 29.90 1012 10 16 0.00 0.00
9:53 am 09:53 Sunny 80 26.7 66 18.9 62 62 NW 10 17 29.90 1013 10 16 0.00 0.00
10:53 am 10:53 Sunny 86 30 63 17.2 46 46 W 10 17 29.88 1012 10 16 0.00 0.00
11:53 am 11:53 Sunny 90 32.2 63 17.2 41 41 WNW 12 19 29.88 1012 10 16 0.00 0.00
12:53 pm 12:53 Sunny 93 33.9 55 12.8 28 28 NW 17 28 29.87 1012 10 16 0.00 0.00
1:53 pm 13:53 Sunny 95 35 52 11.1 23 23 WNW 16 26 29.86 1011 10 16 0.00 0.00
2:53 pm 14:53 Sunny 93 33.9 54 12.2 27 27 WNW 18 30 29.85 1011 10 16 0.00 0.00
3:53 pm 15:53 Sunny 94 34.4 54 12.2 26 26 NW 12 19 29.84 1011 10 16 0.00 0.00
4:53 pm 16:53 Sunny 96 35.6 52 11.1 23 23 NW 8 13 29.83 1010 10 16 0.00 0.00
5:53 pm 17:53 Sunny 95 35 51 10.6 23 23 SW 6 9 29.82 1010 10 16 0.00 0.00
6:53 pm 18:53 Sunny 94 34.4 53 11.7 25 25 W 5 7 29.80 1009 10 16 0.00 0.00
7:53 pm 19:53 Sunny 94 34.4 58 14.4 30 30 Calm 29.79 1009 10 16 0.00 0.00
8:53 pm 20:53 Sunny 83 28.3 71 21.7 67 67 Calm 29.79 1009 10 16 0.00 0.00
9:53 pm 21:53 Clear 73 22.8 66 18.9 79 79 SE 5 7 29.81 1009 10 16 0.00 0.00
10:53 pm 22:53 Clear 71 21.7 64 17.8 79 79 Calm 29.82 1010 10 16 0.00 0.00
11:53 pm 23:53 Clear 69 20.6 62 16.7 78 78 E 3 6 29.81 1009 10 16 0.00 0.00

Powered by AerisWeather